FUNCUBE-1 (AO-73)

Last updated on Wed Sep 09 2026 00:03:15 GMT+0000 (Coordinated Universal Time)

1 39444U 13066AE 26251.35376086 .00006951 00000+0 42028-3 0 9993 2 39444 97.8361 224.6383 0033704 281.2911 78.4531 15.10518210692211
UTC large
Height (km)
Speed (km/s)
/
Latitude / Longitude
Inclination (degrees)
Orbital Period (minutes)
Azimuth
Elevation
Range (km)
Doppler Factor

Next 0 passes for location: London (51.5072 / 0.1276)

No passes found over London.
FUNCUBE-1 (AO-73)